RH
12 11 11 11 10 10 10 10 11 12 12 12 13 15 15 13 11 10 10 11 11 11 14 19 22 21 21 22 23 23 21 17 13 11 12 16 21 23 23 24 27 29 31 30 29 31 31 28 26 23 23 22 21 21 19 19 17 16 17 17 20 18 20 21 19 46 77 86 93 95 90 90 95 93 91 96 93 88 97 106 89 82 101 101 98 102 96 74
12 12 11 11 11 10 10 10 10 11 11 12 11 12 14 15 13 11 10 11 12 11 11 14 19 22 21 21 23 25 24 22 19 14 11 11 15 19 22 23 24 26 27 29 30 31 31 28 27 25 24 23 21 21 20 19 18 16 18 17 18 20 18 21 20 27 59 89 94 92 97 98 98 100 96 93 82 68 79 95 87 91 107 98 95 103 88 57
13 12 12 11 11 11 11 10 10 10 11 11 12 11 12 14 14 14 11 10 11 12 12 11 13 19 22 21 21 24 26 26 24 20 15 11 11 14 18 21 23 24 24 25 27 29 30 28 28 27 25 23 22 22 21 20 19 18 18 18 17 19 18 17 21 21 42 81 99 99 103 103 99 100 97 93 82 58 62 85 88 91 100 92 97 100 74 49
13 13 12 12 11 11 11 11 11 11 11 11 12 12 12 12 13 14 13 12 10 11 13 13 11 13 18 22 21 22 25 27 27 25 21 15 11 11 12 16 20 22 23 23 24 26 28 28 28 27 25 24 23 22 22 21 20 20 17 19 18 18 20 17 19 20 28 61 92 99 100 101 100 101 99 97 90 73 74 92 86 75 82 91 101 88 59 52
13 12 12 12 11 11 11 11 11 11 11 11 11 12 12 12 12 13 14 13 12 11 11 13 13 11 13 18 21 21 23 26 29 28 26 23 16 12 10 11 15 18 21 22 21 22 24 27 27 26 25 24 24 23 24 23 21 20 19 20 21 19 20 19 19 20 20 37 68 91 99 99 100 103 103 100 98 94 94 97 82 65 75 96 100 80 62 64
14 13 12 12 11 11 10 10 10 10 10 10 11 11 11 12 12 12 13 14 13 12 11 11 14 13 12 13 18 21 22 23 28 29 29 28 24 18 13 10 11 13 16 19 20 20 20 23 25 24 24 23 25 25 24 24 22 21 21 22 24 23 21 20 19 19 19 20 35 65 90 100 101 101 101 94 90 97 99 95 83 73 87 101 99 90 83 74
13 14 14 13 13 12 11 10 10 10 10 10 10 11 11 11 12 12 12 13 13 13 11 11 11 14 14 12 14 19 21 22 24 28 30 31 30 27 21 14 11 11 12 14 17 19 19 20 21 22 22 23 24 26 24 23 23 22 22 23 24 23 21 20 18 17 19 18 19 32 59 82 78 72 86 83 71 79 88 88 82 85 102 101 93 102 98 76
12 12 12 13 13 13 12 12 10 10 9 10 10 10 11 11 11 12 12 12 13 13 12 11 11 12 14 14 13 14 19 22 22 25 30 32 33 33 30 23 15 13 12 11 13 15 18 18 19 19 19 22 24 25 25 23 24 24 22 22 22 21 19 18 16 15 16 17 19 19 28 43 39 41 70 83 68 59 64 78 77 80 104 99 87 102 102 84
12 11 11 11 11 12 12 12 12 11 10 10 10 10 10 11 11 11 12 12 12 13 13 13 12 10 12 14 13 13 15 20 22 22 26 31 34 34 35 32 24 20 16 12 11 12 15 16 17 18 18 20 22 22 23 23 23 23 21 20 20 19 18 17 16 15 15 15 18 19 19 23 24 26 43 58 59 48 39 50 62 69 94 99 90 98 103 93
13 12 12 11 11 11 10 11 11 12 12 11 11 10 10 10 10 10 10 11 11 12 12 12 13 11 11 12 14 14 13 15 20 22 23 27 32 35 36 35 31 28 24 17 12 10 11 13 15 16 17 19 20 20 21 22 23 22 20 19 19 18 17 17 17 15 15 15 15 17 17 18 21 21 22 27 41 53 35 21 41 64 88 103 98 95 99 95
14 13 12 12 11 11 10 10 10 10 11 11 12 12 11 10 9 10 9 10 11 11 11 11 12 13 12 11 12 14 14 13 16 21 23 24 28 33 35 36 35 34 29 22 15 11 10 11 12 13 15 17 17 17 19 20 20 20 19 18 18 18 16 16 17 17 15 15 16 16 16 16 18 18 20 20 29 48 37 14 25 47 70 96 104 94 85 81
15 15 14 13 12 12 11 11 10 10 10 10 11 11 12 11 10 9 9 9 10 11 11 11 11 12 13 12 12 12 14 14 14 16 20 24 25 29 34 35 36 36 31 25 21 17 13 11 10 11 12 14 15 16 17 18 18 18 18 17 17 16 16 16 16 17 17 16 16 16 17 17 17 17 18 19 21 26 23 15 18 26 38 61 92 98 74 59
17 17 16 16 15 14 13 12 11 11 10 10 9 10 10 11 11 11 10 9 9 10 10 11 10 11 12 13 13 11 12 14 14 14 16 21 25 27 31 33 34 34 32 29 29 27 21 15 11 10 11 11 12 14 15 16 16 16 16 15 15 15 15 16 16 16 17 17 17 17 18 18 18 18 18 18 19 18 18 18 17 21 21 30 74 104 82 61
19 19 19 18 17 17 16 14 13 12 11 11 10 10 9 9 11 11 11 10 9 9 9 10 10 10 11 12 13 12 11 12 14 14 14 16 24 28 28 31 31 31 31 33 35 33 28 21 14 12 11 10 11 11 12 13 14 15 15 14 13 14 14 15 15 16 17 17 17 17 18 19 18 18 19 18 18 17 17 18 17 19 19 21 58 102 101 73
21 21 21 20 20 19 18 17 16 15 14 13 12 11 10 9 9 10 11 11 10 9 8 8 9 10 10 11 12 13 12 11 12 14 14 13 18 26 29 30 30 30 32 37 39 36 32 28 23 17 12 11 10 10 11 11 12 13 13 13 12 13 14 14 14 15 16 16 17 17 17 17 18 18 18 18 18 17 16 17 17 18 19 18 37 77 91 63
22 23 23 23 22 21 20 19 18 17 17 15 15 13 11 10 9 9 9 10 11 10 9 8 8 9 10 11 11 12 12 12 12 13 14 14 14 19 27 31 30 30 33 38 40 38 37 35 31 24 17 15 13 11 11 10 11 11 12 12 12 12 13 13 14 15 15 16 15 16 16 16 16 17 18 17 17 16 15 16 15 16 18 18 22 37 47 34
24 24 24 24 24 23 22 21 20 19 19 17 16 14 12 10 9 9 8 8 9 10 10 9 8 8 9 10 10 11 11 12 13 12 12 14 14 14 20 28 30 31 33 37 40 41 41 39 36 30 25 23 18 13 12 11 10 10 10 11 11 11 12 12 13 14 14 15 15 16 17 16 16 16 16 17 16 15 14 15 15 15 16 17 20 21 23 22
25 24 24 23 23 22 21 21 20 20 20 18 17 15 13 11 9 9 8 8 8 9 10 10 9 8 8 9 10 11 11 11 13 14 12 13 15 14 14 19 28 35 38 39 41 43 43 40 38 35 33 29 25 21 17 13 11 10 9 10 10 10 11 11 12 13 13 14 14 15 15 15 15 15 15 15 15 15 14 14 15 15 16 15 17 18 19 20
28 26 25 25 23 22 22 21 20 19 19 17 16 15 13 11 10 9 8 8 8 8 8 10 10 9 8 8 9 10 11 11 12 14 14 12 13 15 14 13 20 34 43 44 43 44 43 41 41 41 41 36 30 28 22 15 11 10 9 9 9 9 10 11 11 11 11 12 12 12 13 13 13 13 14 15 15 15 16 16 16 15 17 16 15 17 16 18
32 29 26 25 25 25 25 24 22 20 18 16 14 13 12 11 11 10 10 9 8 8 7 8 10 10 10 8 8 9 10 11 11 12 14 13 12 12 14 14 14 23 38 47 46 44 43 43 45 45 43 37 30 26 23 18 14 12 11 9 9 9 9 10 10 10 10 10 11 10 11 12 12 13 12 14 14 15 15 15 17 16 16 17 15 16 16 17
36 33 30 29 30 31 30 26 23 20 17 15 13 13 12 11 11 11 10 10 9 9 8 8 8 9 10 10 8 8 10 11 11 11 13 14 14 12 13 15 14 16 25 38 45 45 44 47 50 46 40 36 31 27 24 22 21 17 14 11 10 9 9 10 9 10 10 9 10 10 11 11 11 12 11 12 12 13 14 13 15 15 15 16 14 14 15 15
42 39 40 41 40 37 31 24 20 18 15 13 12 12 11 11 11 10 10 10 10 10 10 9 8 9 9 11 11 8 9 11 11 11 11 13 15 14 12 13 15 15 15 24 38 49 53 51 48 44 39 37 35 31 26 26 29 26 21 17 13 10 9 10 9 9 9 9 10 9 10 10 10 10 10 10 11 10 12 12 12 13 13 14 14 13 14 13
48 49 52 49 41 33 25 20 17 15 13 12 11 11 10 10 10 9 10 10 10 10 10 10 9 9 9 10 11 11 9 9 11 12 11 12 14 15 14 12 13 15 15 17 28 48 61 53 41 38 40 39 37 34 29 29 33 33 30 25 17 13 9 10 10 9 9 9 10 9 9 10 9 10 10 9 10 10 10 11 10 11 11 12 12 11 13 12
54 55 52 41 30 25 21 17 15 13 11 11 10 10 9 9 9 9 9 9 9 10 10 10 10 10 9 9 10 12 11 9 11 12 11 12 13 14 15 14 12 13 15 16 20 38 50 41 32 36 41 43 42 38 36 36 39 40 40 34 23 16 11 11 11 9 9 8 9 9 9 10 9 9 10 9 10 9 9 10 9 10 10 10 11 10 11 11
56 50 38 29 24 22 19 16 13 12 11 10 9 9 8 8 9 8 8 9 9 9 9 10 10 10 10 10 9 11 13 11 10 11 12 12 12 13 15 15 14 12 13 16 19 28 31 25 29 40 44 46 46 43 43 45 45 45 46 41 30 21 16 12 12 11 10 9 9 10 9 10 10 9 10 9 9 10 9 10 9 9 10 9 10 9 10 10
49 37 30 28 25 21 17 14 12 11 10 9 9 8 8 8 8 8 9 9 9 9 10 9 10 10 10 10 10 10 12 13 11 10 11 12 12 12 13 15 15 14 13 13 18 23 20 16 27 40 43 46 47 46 49 51 52 53 49 41 32 27 22 15 14 14 11 10 9 11 11 11 11 10 11 11 11 11 10 11 10 9 9 8 9 9 9 9
36 31 33 32 25 19 15 13 11 10 9 8 8 7 8 8 8 9 9 10 10 9 10 10 10 10 10 11 10 10 11 13 13 11 10 12 13 12 12 14 14 15 15 12 14 18 16 15 24 35 40 45 49 52 55 57 62 62 47 32 29 29 24 17 16 17 14 11 10 11 12 12 13 13 13 12 13 13 12 12 11 10 9 8 9 8 8 9
33 37 39 31 22 16 14 12 10 9 8 8 8 8 8 8 8 9 9 10 10 10 10 10 10 11 11 12 11 11 10 11 14 13 11 11 12 13 13 13 14 15 16 14 14 14 14 17 22 29 36 44 52 54 56 63 71 62 37 25 27 27 23 20 21 22 17 11 10 12 12 12 14 13 14 14 14 15 13 12 11 10 10 8 8 8 7 8
39 44 37 26 19 15 12 12 10 9 9 8 8 8 8 8 8 9 10 11 11 11 11 10 11 11 12 12 12 12 10 10 12 13 13 11 11 13 13 13 14 14 16 16 15 13 12 15 18 23 33 43 48 48 53 70 73 53 34 31 31 28 25 25 29 31 24 15 12 13 13 14 15 14 16 19 18 15 13 12 11 10 9 8 8 8 8 8
46 43 32 22 17 14 12 11 9 9 9 9 9 9 9 9 9 9 10 11 11 12 12 11 12 12 12 13 12 12 11 10 11 12 14 13 11 12 14 15 16 15 17 17 17 15 12 13 15 19 28 36 40 44 58 74 63 42 39 41 37 33 30 30 37 36 29 25 19 16 17 16 14 16 21 23 19 16 13 12 11 10 10 13 15 11 9 8
48 38 27 20 16 13 11 10 10 10 9 10 10 10 10 9 9 10 11 11 12 12 13 13 13 13 13 13 12 12 11 10 11 12 14 15 13 12 13 16 18 17 18 17 17 17 14 14 13 15 21 27 35 50 66 69 50 39 47 47 42 42 36 36 42 39 41 47 39 28 27 23 18 22 29 25 18 16 15 13 12 11 12 19 25 21 13 9
45 33 24 19 15 12 11 11 10 10 10 10 10 10 11 10 10 11 11 12 13 13 14 14 14 14 13 14 13 13 12 11 11 12 14 15 16 14 13 15 19 20 20 18 17 17 17 16 14 13 17 20 30 51 67 61 44 41 48 45 43 46 43 42 44 44 61 79 65 43 39 38 31 29 33 28 17 15 14 13 13 11 10 15 22 22 15 11
41 30 24 19 15 12 11 12 11 10 10 10 10 11 11 11 11 11 12 12 13 14 15 16 15 16 15 15 15 14 14 13 13 13 14 15 17 17 14 13 17 21 23 21 19 18 18 18 17 16 16 17 22 39 55 54 46 45 47 43 41 45 49 53 54 57 78 98 82 53 48 55 48 39 42 35 21 16 13 13 14 12 12 11 13 15 13 11
37 29 24 18 14 12 11 12 11 10 10 10 11 11 12 12 11 12 12 13 14 14 16 17 17 17 17 17 17 16 16 15 14 15 15 16 17 18 18 15 15 19 23 24 21 19 19 19 20 19 17 18 19 28 37 41 44 45 42 41 40 41 47 54 60 68 86 100 83 53 49 61 55 46 49 41 24 18 13 12 15 13 13 13 12 14 13 11
36 30 25 17 14 13 12 13 12 11 11 10 11 12 13 14 13 13 13 12 14 14 16 18 18 19 19 19 19 18 18 17 17 17 17 17 17 18 19 18 15 16 20 24 24 22 21 19 20 20 19 19 20 24 28 31 37 37 34 36 37 37 42 48 57 68 82 87 69 44 43 57 55 44 45 41 26 21 15 11 15 14 13 15 15 14 14 12
35 30 24 17 14 13 13 14 12 11 11 11 12 13 13 14 14 14 13 13 13 14 16 18 19 20 20 21 21 20 20 19 19 19 19 19 19 19 20 20 19 16 17 21 24 24 24 22 21 21 21 21 20 20 24 27 29 27 28 31 32 35 39 42 48 59 73 75 59 43 43 57 64 51 42 41 30 21 17 13 14 15 14 16 15 14 13 14
36 31 24 18 15 13 14 14 13 12 12 12 13 13 14 15 15 15 14 14 14 14 16 18 19 21 22 22 23 23 22 22 21 21 21 21 21 21 21 22 22 20 17 17 21 24 26 25 23 22 22 24 23 20 21 22 22 23 26 25 25 30 32 30 35 42 54 59 47 39 40 54 75 69 47 40 33 22 17 15 15 16 17 17 15 13 13 13
38 33 25 19 15 14 14 14 14 13 12 13 14 15 15 15 16 17 16 15 14 14 15 17 19 22 23 24 24 24 24 23 22 23 23 24 24 23 24 24 24 25 21 17 18 21 25 27 26 25 23 24 25 25 23 19 19 20 21 19 20 24 23 23 27 29 38 42 34 35 37 43 72 85 62 43 37 28 19 17 19 19 19 20 17 13 12 12
39 35 27 20 16 15 15 15 15 14 14 14 16 17 17 17 17 18 18 18 17 16 16 16 18 21 24 25 26 25 25 24 23 23 24 25 26 26 27 27 26 28 26 22 19 18 21 25 27 27 26 25 25 26 25 22 19 18 17 17 16 18 17 17 19 20 25 28 24 29 33 32 56 83 72 46 36 34 27 20 22 23 23 26 21 15 13 13
40 37 30 21 17 16 15 15 16 15 15 15 17 18 19 20 19 19 19 19 19 19 19 19 19 21 24 26 27 27 26 25 24 23 23 24 26 27 28 28 29 29 29 28 23 18 19 21 25 27 29 30 28 26 24 22 21 20 18 16 13 14 15 14 15 16 18 19 17 19 23 24 39 62 67 49 33 33 34 26 25 27 30 34 29 21 17 15
43 39 32 22 18 17 15 16 16 16 16 16 18 20 20 22 22 21 21 20 20 21 21 22 22 24 27 29 30 29 28 27 26 24 24 24 25 26 28 29 29 30 30 30 27 22 19 18 20 24 27 30 31 28 24 22 21 20 19 18 15 13 13 12 13 13 13 14 14 14 14 17 26 40 53 50 33 27 31 30 28 31 37 42 38 28 22 18
47 41 34 23 18 17 16 16 17 17 17 17 19 21 21 22 23 23 23 22 21 21 21 22 23 25 30 33 34 34 32 29 27 26 25 25 25 25 27 29 30 30 30 31 29 25 21 18 17 19 23 26 29 29 28 24 21 20 19 18 17 15 14 13 12 11 11 11 11 11 11 12 18 25 36 44 38 29 27 28 29 31 38 44 42 33 26 20
51 43 36 25 19 18 17 16 17 18 18 18 19 21 23 24 24 24 24 23 22 22 22 23 23 24 28 32 35 37 36 34 32 30 29 28 28 27 28 29 31 33 33 32 31 28 25 22 18 16 18 21 25 27 28 26 24 22 20 18 18 17 15 14 13 11 11 10 9 9 9 9 13 16 21 30 36 34 29 27 28 29 34 39 38 34 28 22
51 43 38 29 21 19 18 17 18 18 19 20 20 21 23 25 25 24 25 25 24 23 23 23 24 25 27 30 35 38 40 39 38 36 35 34 32 30 30 31 33 35 37 37 35 32 30 27 22 18 17 18 21 24 26 27 26 24 22 20 18 17 16 15 14 14 12 11 9 8 8 8 10 12 14 19 25 31 31 28 27 27 31 34 33 28 25 23
51 42 39 32 23 20 19 18 19 19 20 21 21 21 22 25 27 27 25 25 25 24 24 23 23 24 25 28 32 36 39 41 41 40 39 38 36 35 33 33 33 35 38 40 39 37 35 33 28 24 20 18 18 20 23 25 26 25 24 22 20 18 17 16 15 14 14 13 11 9 8 8 8 9 11 13 17 23 27 28 27 26 28 32 32 26 21 21
52 42 40 36 26 22 20 17 19 20 20 21 22 23 23 24 27 29 28 26 25 24 25 25 23 23 23 25 29 33 36 39 41 41 41 40 39 38 37 35 34 35 37 40 41 41 39 36 33 29 25 21 19 18 20 22 24 25 24 24 23 21 20 18 16 15 14 13 12 11 9 8 8 9 9 11 13 16 21 25 25 25 25 27 30 27 20 19
55 43 41 38 28 23 22 19 18 20 21 23 24 24 25 25 26 28 29 29 28 26 25 25 25 24 23 23 25 29 33 37 40 41 41 41 40 40 39 38 36 36 36 39 41 42 43 40 36 32 29 26 22 19 18 19 21 23 24 24 24 24 23 22 20 18 16 15 14 12 11 10 9 9 8 9 10 12 16 19 22 24 23 22 24 25 21 18
59 45 42 39 31 25 24 21 19 20 21 23 24 25 26 26 26 26 28 29 29 29 28 26 26 26 25 24 23 25 28 33 38 40 40 41 41 41 41 40 39 37 36 37 39 41 43 43 39 35 31 29 26 22 19 18 18 20 21 22 23 24 25 24 23 21 19 18 16 14 13 12 10 10 10 9 9 11 12 15 18 21 22 19 18 21 21 19
62 47 43 41 33 27 25 24 22 22 22 23 24 26 27 27 27 26 26 27 28 29 30 28 28 27 26 25 23 23 24 27 32 37 39 41 41 41 41 41 40 39 37 36 37 38 40 41 40 37 33 30 28 26 23 19 17 17 18 19 20 21 23 23 23 22 22 20 18 16 14 13 12 12 11 10 10 10 11 12 14 17 20 20 17 17 19 19
65 49 45 43 36 29 26 26 24 23 24 24 24 26 28 28 30 29 28 28 27 28 30 29 29 28 27 27 26 24 23 24 27 32 36 39 41 41 42 41 40 40 39 37 37 36 37 38 38 37 34 31 28 27 26 23 20 17 17 17 17 18 19 21 22 22 22 21 19 17 16 15 14 13 12 11 11 10 11 11 11 13 16 18 17 15 17 18
67 52 47 45 40 32 27 27 27 24 24 25 25 26 28 29 31 31 30 30 29 28 29 29 29 28 28 28 29 28 27 26 25 27 30 35 39 41 42 42 41 41 40 38 37 36 36 36 35 35 34 32 29 26 25 25 23 20 18 16 16 16 16 17 18 19 20 20 18 17 17 16 15 14 13 13 12 11 11 10 10 11 12 15 17 16 15 17
68 55 50 47 43 36 29 28 29 27 27 28 28 27 28 29 31 32 31 31 31 30 30 30 29 28 28 29 30 30 30 29 27 26 27 29 33 37 41 43 42 41 40 39 37 35 35 35 34 33 33 31 29 27 24 23 23 23 21 18 16 15 14 14 15 16 17 18 17 16 16 17 16 15 15 14 13 12 11 11 10 10 11 12 14 16 16 16
Wind_Speed
44 44 44 44 44 44 44 44 44 44 43 43 43 43 43 43 43 43 44 46 47 49 49 49 48 46 45 43 42 40 40 41 44 48 52 54 56 56 54 53 53 52 50 49 47 45 44 44 45 44 43 42 40 38 36 34 32 29 27 26 25 23 21 20 20 19 17 16 15 14 14 11 9 9 10 12 13 12 10 10 9 8 13 17 17 18 19 24
45 45 45 45 45 45 46 46 46 46 46 46 45 45 46 46 45 45 45 46 48 49 51 51 51 50 49 47 45 43 42 42 42 45 49 53 56 57 56 56 55 54 52 51 49 48 47 46 46 45 45 44 42 40 38 37 35 32 30 29 27 25 23 22 22 21 20 19 18 16 13 10 9 9 10 11 14 12 9 10 10 10 13 16 18 18 18 22
45 46 46 46 47 47 47 47 48 48 48 48 48 48 48 48 48 48 47 47 48 50 51 53 53 53 52 51 49 47 45 44 43 43 45 49 54 57 57 58 57 56 55 53 52 51 49 48 47 46 46 46 44 42 41 39 37 35 33 31 29 28 26 25 23 22 22 21 21 18 14 10 8 8 10 11 14 14 11 10 10 12 12 14 16 16 17 20
47 47 47 48 48 48 48 49 49 50 50 50 51 51 50 51 51 50 50 49 49 50 52 53 55 55 55 54 52 51 49 47 45 44 44 46 50 54 57 58 59 59 57 55 54 53 51 50 49 48 48 47 46 44 43 41 39 37 36 33 32 30 29 27 25 24 23 23 23 20 16 11 8 8 11 12 14 15 14 12 12 13 12 13 14 13 15 18
46 48 49 49 50 50 50 50 51 51 52 52 53 53 53 53 53 53 53 52 52 52 52 54 55 57 57 57 56 54 53 50 49 47 45 45 47 51 54 56 59 60 59 58 57 55 54 52 52 50 49 48 47 45 44 43 42 40 38 36 35 34 32 30 28 27 25 24 24 23 21 17 14 14 14 15 16 16 15 14 15 14 13 13 12 12 14 17
44 45 47 49 50 51 52 52 53 53 53 54 54 55 55 56 56 55 55 55 55 54 54 54 56 58 59 59 59 58 56 54 52 50 48 47 47 48 51 53 57 59 60 60 59 58 56 54 54 53 51 50 48 46 45 45 44 43 41 40 38 37 35 34 32 30 28 27 26 26 25 25 22 20 20 20 19 18 17 15 14 13 13 12 10 10 11 16
43 44 45 46 48 50 52 53 54 54 55 55 55 56 57 58 59 58 58 58 58 57 57 56 56 58 60 61 61 61 60 58 56 53 51 49 48 48 49 51 54 56 58 60 61 60 58 57 56 55 54 51 49 48 47 46 46 45 44 43 41 40 39 37 35 34 32 31 30 29 28 28 26 24 23 24 22 21 19 16 13 12 12 11 8 8 10 15
46 46 46 46 47 48 50 52 53 55 56 57 57 58 59 60 61 61 61 61 60 60 60 59 58 58 60 62 63 63 63 61 60 57 55 53 51 50 49 50 52 53 55 58 61 61 60 59 58 57 56 53 52 50 49 48 48 48 47 46 45 44 42 40 39 37 35 34 33 31 30 29 27 25 22 22 21 20 19 16 14 14 14 11 7 9 10 15
51 51 51 50 50 50 50 51 51 53 55 57 59 60 61 62 63 63 64 64 63 63 62 62 61 60 60 62 64 65 65 64 63 61 59 57 55 53 51 50 51 51 53 55 59 61 62 61 59 59 57 55 55 54 52 51 51 51 50 48 47 46 45 43 41 40 38 36 35 34 33 31 29 27 25 24 23 23 21 18 16 16 14 10 7 10 12 16
54 54 55 55 55 54 54 53 52 52 53 55 57 60 63 64 65 65 66 66 66 66 65 64 64 63 62 62 64 66 67 67 66 65 63 61 59 56 55 53 52 51 52 54 57 60 61 60 60 60 59 59 58 57 55 55 55 54 52 51 49 48 46 45 43 42 40 38 36 35 35 33 31 29 29 28 26 26 25 22 19 17 15 11 9 12 14 16
55 56 58 58 59 59 59 58 57 55 55 55 56 59 62 65 67 67 68 68 68 69 68 67 67 66 65 64 64 66 67 68 69 68 66 64 62 60 58 57 54 53 54 54 55 56 58 59 60 61 62 61 61 59 58 58 58 56 54 53 51 50 48 46 45 44 42 39 38 37 36 35 33 31 30 30 28 27 28 25 22 19 18 17 15 15 14 15
56 58 59 60 61 62 62 63 62 61 59 58 58 60 62 64 66 68 70 70 71 71 71 71 70 68 68 67 66 66 67 69 70 70 69 68 66 64 62 60 58 56 56 55 53 53 55 57 59 61 62 63 62 61 61 61 60 58 57 55 54 52 50 49 48 45 43 42 40 38 37 36 35 34 32 32 31 31 31 29 25 23 22 22 22 20 17 17
57 59 60 62 63 64 65 66 66 66 65 64 63 63 64 64 64 67 70 72 73 73 74 74 73 71 71 70 69 68 68 70 71 72 72 71 69 67 65 64 62 60 58 55 53 53 53 55 57 59 60 62 63 62 62 63 61 60 59 57 55 54 52 51 49 47 45 44 42 41 39 38 37 36 35 34 33 33 33 31 29 26 25 25 25 24 20 19
59 59 61 63 64 65 67 68 68 69 69 69 69 69 68 67 66 68 70 72 75 76 76 76 75 75 73 73 72 72 70 70 70 72 73 73 72 70 69 67 65 63 60 57 55 54 54 54 55 56 57 60 62 63 63 64 63 63 61 59 57 55 54 53 51 49 48 46 44 43 41 40 39 38 37 36 35 34 33 33 31 29 28 26 26 26 24 22
59 60 62 63 65 66 68 69 70 71 72 72 73 74 74 72 71 71 71 72 74 77 78 78 77 77 76 75 75 75 73 71 70 72 74 75 74 73 72 70 68 66 62 59 58 57 56 54 54 55 56 58 60 62 62 63 65 64 63 61 59 57 56 55 53 52 50 48 47 45 44 43 42 41 40 39 37 36 35 34 33 31 30 28 27 28 27 26
58 59 60 62 63 65 68 70 71 72 73 74 76 77 78 78 77 75 74 74 75 76 78 80 80 79 79 78 78 77 76 73 72 72 74 75 76 75 74 73 71 69 66 63 61 60 58 57 56 55 55 56 58 59 60 61 63 64 64 62 60 59 58 56 55 54 53 51 50 48 47 45 44 43 42 41 39 38 37 36 36 34 32 31 29 29 30 28
55 57 58 59 61 64 66 69 71 72 74 76 78 80 81 82 81 80 78 76 76 76 77 80 81 81 81 81 80 79 78 76 75 74 74 75 76 77 77 76 74 72 69 66 64 62 61 60 58 56 55 56 57 57 58 59 61 63 64 64 62 61 60 58 58 57 55 54 52 51 50 48 47 45 44 43 41 40 39 38 38 37 35 34 32 31 31 29
52 54 55 56 59 62 65 67 70 72 75 78 80 82 83 84 83 83 82 80 78 78 77 78 80 82 83 82 82 82 81 79 78 77 76 75 76 78 79 78 76 74 72 70 67 66 64 63 60 58 57 57 57 58 58 58 59 62 64 64 63 62 61 60 59 59 58 56 55 54 52 50 48 47 46 45 43 42 41 40 39 39 38 37 35 33 32 31
50 51 53 56 59 61 64 66 69 72 75 79 82 84 85 85 84 84 84 83 81 80 79 79 80 82 83 84 84 84 84 82 81 80 79 77 77 78 79 79 78 77 75 73 71 69 67 65 63 61 61 60 60 60 59 59 58 59 62 64 63 62 62 61 61 61 60 59 57 55 53 52 50 49 47 46 45 44 42 42 41 41 41 39 38 35 34 32
49 51 53 56 58 60 63 66 69 72 76 80 83 84 85 85 84 84 84 84 84 83 81 81 81 81 83 85 86 86 86 85 84 82 81 80 79 78 79 80 79 79 78 76 74 72 70 67 66 66 65 63 62 61 60 58 57 58 59 61 63 62 61 61 62 61 61 60 58 56 54 53 51 50 49 48 47 46 45 44 43 43 43 42 40 37 35 33
49 51 54 56 57 59 62 66 69 72 76 78 80 82 83 84 84 84 84 84 85 85 85 84 83 83 83 84 86 88 88 87 86 85 83 83 81 79 79 79 80 80 80 79 77 75 72 70 71 70 67 65 63 62 61 59 58 57 57 59 61 61 61 61 61 60 60 59 57 55 54 53 52 51 50 49 48 48 47 46 45 45 44 44 42 39 37 34
50 52 54 56 58 60 63 67 69 72 74 74 74 76 78 79 80 82 83 84 85 86 87 87 87 86 85 85 86 88 89 89 89 87 86 85 83 81 80 80 80 81 82 81 80 77 75 75 75 72 69 67 65 63 62 60 59 58 57 58 59 61 61 59 59 58 58 57 56 55 54 52 51 51 50 50 49 49 48 47 47 47 46 45 44 42 39 35
51 52 55 59 60 61 64 67 69 70 70 69 68 70 72 73 75 76 78 81 84 86 88 89 89 88 87 87 87 88 90 91 91 90 89 87 86 84 82 81 80 80 81 82 81 80 79 79 78 75 72 70 68 66 64 61 60 60 60 60 60 61 60 58 57 58 58 56 55 55 54 52 51 50 49 49 48 48 48 47 47 47 46 46 45 44 41 37
52 55 58 61 61 62 64 66 66 66 65 63 63 64 66 67 69 71 72 75 80 83 86 87 88 89 90 89 89 89 90 92 93 93 91 90 88 86 85 83 82 80 80 82 83 83 83 83 80 77 74 72 70 68 65 63 62 62 62 63 62 61 60 58 57 57 57 56 54 53 52 51 51 50 49 48 47 47 47 47 47 46 46 45 44 43 41 38
55 58 59 61 61 62 64 64 63 61 59 58 58 59 60 62 64 66 68 71 75 79 82 85 87 89 91 92 91 91 91 92 94 94 94 92 90 89 87 86 84 81 80 81 83 85 86 85 81 79 76 74 73 70 68 66 65 64 64 65 64 62 61 59 57 56 55 54 53 51 50 50 50 49 47 47 46 45 45 45 45 46 45 44 43 42 41 39
57 58 59 61 63 62 62 62 60 57 54 53 52 53 55 57 59 61 64 68 72 75 78 82 86 88 91 93 93 92 92 93 94 95 95 94 92 91 89 88 86 84 82 82 83 86 87 85 83 81 79 77 75 73 71 69 67 66 67 67 66 64 62 60 57 55 55 54 51 49 48 47 47 46 45 44 43 42 42 43 43 44 43 42 42 41 40 39
56 58 61 64 64 62 60 59 56 52 49 47 47 48 50 52 55 58 62 65 69 72 75 79 83 86 89 91 93 93 93 93 94 95 96 96 94 93 91 90 88 86 85 83 83 86 86 85 84 83 81 79 77 76 74 72 71 71 72 70 68 66 65 62 59 57 56 54 51 50 49 46 45 44 43 42 40 40 41 41 41 41 41 41 40 40 39 38
57 60 63 65 64 61 57 55 51 47 43 42 42 43 46 49 52 55 59 63 66 69 73 76 80 83 86 89 92 94 94 94 95 95 95 96 96 94 93 91 90 88 86 84 84 86 85 84 85 85 83 82 80 80 78 75 75 76 76 72 69 68 66 63 60 58 58 55 52 51 49 47 46 45 43 42 42 43 43 42 41 41 40 40 39 38 38 37
58 62 65 65 62 58 53 49 46 42 38 37 38 39 43 46 49 53 56 60 63 66 70 73 77 80 84 87 91 93 95 94 94 93 94 95 96 95 94 92 91 89 88 86 86 86 84 84 85 85 85 85 84 83 80 78 79 80 77 73 71 69 67 64 62 60 59 57 55 54 51 49 48 45 43 45 46 46 45 43 42 41 40 39 38 36 36 35
61 65 65 64 60 55 49 43 40 37 34 33 34 36 40 43 46 49 53 57 60 63 67 71 74 78 81 85 89 92 93 93 92 92 93 94 95 96 95 94 92 90 89 89 88 87 85 85 85 85 86 87 87 85 83 83 84 82 78 76 73 71 69 66 63 61 59 58 57 56 54 53 50 47 47 50 50 47 44 42 41 40 38 37 36 34 33 33
64 66 66 62 57 51 44 39 35 32 30 29 31 33 37 40 43 47 51 55 57 61 65 69 72 76 79 83 86 88 90 90 90 91 92 93 94 96 96 95 94 92 92 91 90 88 87 86 86 86 87 88 88 86 85 86 86 83 80 79 76 73 71 68 65 63 59 58 59 58 56 55 53 51 52 53 50 46 43 42 41 39 37 36 35 33 31 31
66 67 65 61 54 47 40 35 31 28 26 26 28 30 34 38 41 45 49 51 55 59 63 67 70 74 76 79 82 84 86 88 89 90 92 93 94 95 97 97 96 95 94 93 92 90 89 88 87 87 88 88 88 88 88 88 87 85 83 82 79 76 73 69 67 64 61 59 60 60 58 57 56 56 55 53 50 46 44 42 39 37 36 35 34 32 30 30
68 68 65 59 52 45 37 32 29 25 23 23 25 28 32 36 40 43 46 49 53 57 60 64 68 71 74 77 80 82 84 87 89 90 92 94 94 95 97 98 98 97 96 95 94 93 92 90 88 88 88 88 88 89 90 90 88 86 85 83 81 78 75 71 68 66 63 61 62 62 60 59 59 58 56 53 50 47 44 41 39 37 35 34 33 32 30 29
69 69 64 57 50 43 35 29 26 23 21 21 23 25 29 33 37 42 45 48 52 55 57 61 65 69 73 76 79 82 84 86 89 90 92 94 95 96 97 98 99 99 98 97 96 95 94 92 91 90 89 89 88 89 90 90 90 89 87 85 83 80 77 74 72 69 67 65 65 65 63 62 63 60 57 56 52 48 46 43 41 39 36 33 32 32 30 29
70 69 64 56 48 41 34 28 23 21 19 19 21 24 27 31 35 40 44 48 51 53 56 59 62 66 70 74 78 81 84 86 88 91 92 94 95 96 97 97 99 99 100 100 98 97 95 94 93 92 91 90 89 89 90 91 91 90 88 87 85 82 80 78 75 73 71 69 68 68 67 66 65 63 61 58 55 51 48 45 43 41 38 35 34 33 31 29
70 69 63 55 47 40 33 27 22 19 17 18 20 23 26 30 34 38 42 46 49 52 55 58 61 64 68 72 76 79 83 86 88 91 93 95 96 97 97 98 99 100 101 101 101 99 97 96 94 93 92 91 91 90 90 91 91 90 89 89 87 84 83 80 78 76 74 72 70 70 69 67 66 65 63 60 57 53 50 48 46 43 41 39 38 35 32 31
71 70 64 56 48 40 33 27 21 17 15 16 18 22 25 29 32 36 40 44 48 51 54 57 60 62 66 69 73 77 81 85 88 91 93 95 97 98 98 99 99 100 101 102 102 101 100 98 97 95 94 93 92 92 92 92 91 91 91 90 88 86 85 83 81 79 77 75 73 72 71 68 66 66 65 62 59 56 53 51 48 45 44 43 42 39 35 33
72 71 65 56 48 40 33 27 21 16 14 15 17 20 24 28 31 34 38 41 45 49 53 56 59 61 64 67 71 75 79 82 86 90 93 95 97 99 99 100 100 101 101 102 103 103 102 101 99 98 96 95 94 93 93 93 92 92 92 90 89 88 87 85 83 81 79 78 76 74 73 70 67 66 66 64 61 59 56 53 50 48 46 46 45 42 38 36
73 73 67 57 48 40 33 26 21 16 12 13 15 18 22 25 29 33 36 39 42 46 50 54 58 60 63 66 68 72 76 80 84 88 91 94 97 99 100 101 101 102 102 103 103 104 104 104 102 100 99 97 96 95 95 94 93 93 93 92 90 89 88 86 84 82 81 80 78 77 75 72 69 67 67 66 63 60 58 55 53 51 49 49 49 46 42 39
74 75 69 58 49 41 33 26 21 15 12 11 14 17 20 23 27 30 33 37 40 43 47 51 55 58 61 64 66 69 72 76 80 85 89 93 96 99 101 102 103 103 104 104 104 105 105 105 105 104 102 100 98 98 97 96 95 94 93 93 92 91 89 88 86 84 82 81 80 78 76 73 71 69 69 68 66 63 60 58 56 54 52 51 51 49 45 43
75 77 70 59 49 41 34 27 21 16 11 10 12 16 19 22 25 28 31 35 38 42 46 49 53 56 59 61 63 66 69 72 76 80 85 89 93 97 100 102 103 104 105 105 106 106 106 107 107 107 105 103 101 100 99 97 96 95 94 94 93 92 91 89 88 86 84 82 81 79 77 74 73 72 70 69 68 65 63 61 59 57 55 54 53 52 49 46
77 78 71 60 50 42 35 28 21 16 12 9 11 15 18 21 24 26 29 33 36 40 44 48 52 55 58 60 62 64 66 68 71 74 79 83 88 93 97 100 102 103 104 105 106 107 107 107 108 108 108 106 104 103 101 100 99 97 96 95 94 93 92 91 89 87 85 84 82 80 78 75 75 73 71 70 68 67 65 64 62 61 59 57 55 54 52 49
77 78 72 61 51 43 36 29 22 16 13 9 9 12 16 20 24 26 28 31 34 38 42 46 50 54 57 60 61 62 63 65 67 69 73 77 82 87 92 96 99 102 103 104 105 107 107 107 108 108 108 108 107 105 104 103 101 99 98 97 95 94 93 92 90 89 87 85 83 81 79 77 76 74 72 71 70 69 68 67 65 64 62 60 58 57 55 52
76 78 74 64 53 44 36 30 23 17 13 10 9 11 14 19 23 26 28 30 33 37 41 44 48 52 56 59 61 63 63 64 65 67 69 72 77 82 87 91 96 99 101 103 104 106 106 106 107 107 107 107 107 106 106 105 103 102 101 99 98 96 95 93 92 90 89 87 84 82 81 79 77 75 73 72 71 71 70 69 68 67 65 63 61 60 58 55
75 77 74 66 55 45 37 30 24 19 14 11 10 10 13 17 21 25 27 30 32 35 39 43 46 50 54 58 61 63 65 65 66 67 68 70 73 77 81 86 91 95 99 101 104 105 106 106 107 107 107 106 106 106 106 106 105 104 103 101 100 98 97 95 94 92 90 88 86 84 82 80 78 77 75 73 73 73 73 72 71 69 68 65 64 62 61 58
74 76 75 68 57 47 39 32 25 19 16 13 10 10 11 15 19 23 26 29 32 34 37 40 44 48 52 56 60 63 65 66 67 68 69 70 71 74 77 82 86 91 96 99 102 104 105 106 107 108 108 107 106 106 106 106 106 106 105 104 102 101 99 97 96 94 92 89 87 85 84 82 80 78 76 75 75 75 74 74 73 72 70 69 66 65 64 61
74 77 75 69 58 48 41 35 28 21 16 13 11 10 11 13 17 21 25 28 30 33 35 38 41 45 49 53 57 61 64 66 68 68 69 70 71 72 74 78 82 87 92 96 100 103 104 106 107 109 109 109 108 108 107 107 107 107 107 106 105 104 102 100 98 96 94 91 89 87 86 84 82 80 78 76 76 76 76 76 75 74 73 72 69 67 66 64
74 76 75 70 60 50 43 38 32 25 18 14 11 10 10 12 15 18 22 26 29 31 34 37 39 42 46 50 54 58 62 65 68 69 70 70 71 72 73 75 78 82 87 92 97 101 103 105 107 109 110 110 110 109 109 109 108 108 108 109 108 107 105 103 101 98 96 94 92 90 89 87 84 82 80 78 77 77 78 77 77 76 75 74 71 69 68 67
74 76 76 71 63 53 45 39 35 29 22 16 12 10 10 11 13 16 19 23 26 29 32 35 38 41 44 47 50 54 58 62 65 68 70 71 71 72 73 75 76 79 82 87 92 97 101 104 107 109 110 111 111 110 110 110 110 110 110 110 110 110 108 106 104 102 100 98 95 94 92 90 86 84 82 80 79 79 79 79 79 78 77 75 73 71 70 69
74 76 77 73 65 57 49 42 37 32 25 19 14 11 9 9 11 13 16 19 23 26 30 33 37 39 41 44 46 49 53 57 61 65 69 70 71 72 73 75 76 77 79 82 86 91 96 100 105 108 110 111 112 112 112 111 111 111 111 111 112 111 111 109 108 106 103 102 100 98 95 93 89 86 85 83 81 80 80 80 80 79 78 77 75 73 72 71
73 76 77 74 67 60 53 46 41 36 29 23 18 13 9 8 9 11 14 16 19 22 26 30 34 36 39 41 43 47 50 53 57 62 66 69 71 72 74 75 76 77 79 80 83 86 90 95 100 105 108 110 112 113 113 112 112 112 112 113 113 112 112 111 110 109 107 105 104 102 99 96 93 90 88 86 84 82 81 81 81 80 79 78 77 75 74 73
72 75 76 74 68 62 55 48 43 40 34 28 21 16 11 8 7 8 10 13 16 19 22 26 30 33 36 39 43 46 49 52 55 58 62 66 69 72 74 75 77 78 79 80 82 84 86 90 94 99 103 107 110 112 113 113 113 113 113 114 114 113 113 112 111 110 109 108 107 105 102 100 97 95 92 90 87 85 84 83 82 81 80 80 79 77 75 75
Wind_Direction
266 264 262 260 258 255 253 251 249 248 246 244 242 240 239 239 237 235 234 233 232 231 231 231 231 231 228 225 224 224 223 223 223 224 225 226 226 226 226 226 228 227 223 221 221 222 223 222 221 220 220 220 219 219 220 220 218 214 210 210 214 214 212 208 206 205 201 194 190 199 205 215 244 270 277 274 273 275 286 308 310 321 352 351 340 336 344 352
267 265 263 261 259 257 255 253 251 249 247 245 244 241 239 238 237 236 234 233 233 232 231 231 231 231 231 228 225 224 224 224 223 223 224 225 227 227 226 227 228 229 226 224 223 224 224 223 222 222 222 221 220 220 221 221 220 218 216 214 214 215 215 212 210 208 206 202 203 209 205 213 246 273 290 285 271 263 275 298 301 320 342 341 332 331 341 350
267 265 264 262 260 258 256 254 252 250 248 246 245 243 241 239 237 236 235 234 233 232 232 231 231 231 231 230 228 225 225 225 224 224 223 224 226 227 227 228 228 229 228 226 224 225 225 224 225 224 223 222 221 220 221 223 223 221 221 219 217 217 217 216 214 212 210 207 209 214 211 221 252 269 278 278 269 268 282 298 300 309 324 332 333 336 343 348
268 266 264 262 260 258 256 255 253 251 249 247 246 244 243 241 238 236 235 234 233 232 232 231 231 230 230 231 230 227 225 225 225 224 224 224 224 226 227 228 229 229 229 228 226 226 225 226 227 226 224 223 222 221 222 223 224 224 224 223 222 222 221 219 218 217 215 213 213 215 215 215 222 233 245 253 263 278 291 301 304 305 311 325 336 342 347 349
271 268 266 264 261 259 257 255 253 251 249 248 246 245 244 243 241 238 236 234 233 232 231 231 231 230 230 230 231 229 227 225 225 224 224 224 224 225 225 227 229 229 229 229 228 227 226 226 228 227 225 225 224 224 224 224 225 225 225 227 227 227 225 223 222 221 220 220 218 218 218 215 213 222 232 240 253 270 281 290 300 302 304 319 335 341 347 348
275 272 270 267 264 261 258 255 253 251 249 248 247 246 244 243 242 241 238 236 234 233 232 231 230 230 230 230 230 230 229 227 225 224 224 225 225 226 225 225 228 229 229 229 229 228 227 227 228 227 226 226 226 227 227 226 226 226 226 228 229 229 229 227 224 223 224 224 224 222 222 224 227 233 238 243 251 261 271 283 295 298 303 314 328 339 347 347
278 275 272 270 267 264 261 258 255 252 250 248 247 246 245 244 243 241 240 238 236 233 232 231 230 230 230 229 229 230 229 228 226 225 224 225 225 227 226 225 226 228 229 228 229 229 227 227 228 228 227 227 229 230 229 228 228 228 228 228 230 230 229 228 225 223 224 226 228 227 227 229 235 241 247 252 254 259 267 278 286 289 304 318 324 326 339 345
279 277 274 271 269 266 264 261 257 254 252 249 247 246 244 243 243 242 241 239 238 235 233 231 230 229 229 229 229 229 229 229 228 226 225 225 225 226 227 226 225 227 228 228 229 229 228 227 228 229 228 228 230 232 231 231 231 231 229 228 230 230 229 229 227 225 224 225 229 231 231 232 237 242 248 253 255 259 264 272 276 281 301 320 323 311 320 335
278 276 274 272 270 267 265 262 260 257 254 251 249 247 244 243 242 241 240 240 238 237 235 233 231 229 229 229 229 228 228 229 228 227 225 225 225 225 227 227 226 227 228 228 228 228 228 227 228 230 230 231 232 232 232 233 233 233 230 229 230 230 230 230 230 229 227 226 228 232 234 235 238 242 246 251 255 260 262 266 271 280 295 309 315 304 308 323
276 274 273 271 270 268 266 263 261 258 255 253 251 248 246 244 242 240 239 239 239 238 236 234 232 230 229 229 228 228 228 228 228 228 226 225 225 225 226 227 227 228 229 228 227 227 228 228 228 230 231 231 232 232 232 234 235 234 231 229 231 231 231 232 233 233 231 230 231 233 235 237 239 242 246 251 254 258 261 263 265 274 284 288 302 304 304 315
276 273 271 269 268 267 266 264 262 259 256 253 252 250 248 245 243 241 239 238 237 237 236 235 233 231 229 229 228 228 227 227 228 227 227 226 225 225 226 226 226 228 229 228 227 227 227 228 227 228 230 231 231 231 232 234 235 235 232 231 232 232 231 232 234 235 235 234 235 236 237 239 241 242 245 249 251 255 262 266 265 268 273 276 288 297 300 308
277 274 271 269 267 265 264 262 261 260 257 254 252 250 248 246 244 242 240 238 237 236 236 235 234 232 231 229 228 228 227 227 227 227 227 226 226 225 225 226 226 227 229 229 228 228 227 227 227 228 229 230 231 231 233 234 234 235 234 233 233 233 232 233 235 236 237 237 238 239 241 242 244 245 247 249 252 256 263 267 268 269 271 274 280 283 291 305
278 274 271 269 267 265 263 261 260 258 257 255 253 250 248 246 245 243 242 240 237 235 235 235 234 233 231 230 229 228 227 227 227 227 227 227 226 226 225 226 226 226 227 228 229 229 229 227 227 227 229 230 230 231 232 234 234 234 235 234 233 234 234 235 237 238 239 239 239 241 243 245 246 247 249 251 253 256 261 265 267 268 270 273 276 275 284 302
278 274 271 269 266 264 262 261 259 257 256 254 253 251 249 247 244 243 242 240 239 236 234 233 233 233 232 231 230 228 227 227 227 226 226 226 226 226 226 226 226 226 226 227 229 230 230 229 228 227 228 230 230 230 231 233 234 234 234 234 233 234 236 237 238 240 241 241 242 243 244 246 247 248 250 251 253 255 258 262 264 266 268 270 273 273 281 295
276 273 270 268 266 264 263 261 259 257 255 254 252 251 249 247 245 242 240 240 239 237 235 233 232 232 231 231 230 229 227 226 227 227 226 226 226 226 226 226 226 226 226 226 228 229 230 230 229 229 228 229 231 231 231 232 233 234 234 234 233 234 236 237 238 240 240 241 242 242 243 244 246 248 249 250 252 254 256 258 261 263 265 267 269 271 278 287
275 272 269 267 265 264 262 261 259 257 255 254 252 250 249 247 245 243 240 239 238 237 236 234 232 231 230 230 230 230 228 227 226 227 227 226 226 226 225 226 226 226 225 225 227 228 229 230 230 230 229 230 232 232 231 232 233 234 234 233 233 235 236 237 238 240 240 241 241 242 242 243 244 246 248 249 251 252 254 256 259 260 262 264 265 268 274 279
275 272 270 267 265 263 262 260 259 257 255 254 252 250 249 247 245 244 241 238 237 236 236 235 233 231 230 229 230 230 229 227 226 226 227 226 226 225 225 225 226 226 225 225 225 227 228 229 229 229 229 231 232 232 232 232 233 234 233 233 233 235 236 237 239 240 240 241 241 242 242 242 243 245 247 249 250 252 253 255 258 259 260 261 262 264 268 272
276 274 272 271 269 267 265 262 260 258 256 254 252 251 250 248 246 244 242 240 237 236 235 234 234 232 230 229 229 229 229 227 226 226 226 226 226 225 225 225 225 225 225 225 225 225 227 228 229 229 229 230 231 232 233 232 233 234 233 233 233 234 236 237 239 240 240 240 241 241 242 242 243 244 246 249 250 252 253 255 257 259 260 260 260 262 265 268
280 279 278 277 275 273 270 267 264 260 257 255 253 252 251 249 247 245 243 241 239 237 234 233 233 232 231 229 228 228 228 227 226 226 226 225 226 226 225 224 224 224 224 225 225 225 226 227 228 228 229 229 230 231 232 232 233 234 234 233 233 234 235 236 238 239 240 240 241 242 243 244 244 244 245 247 249 250 252 253 255 257 259 260 261 261 263 266
284 283 282 280 278 276 273 270 267 263 259 257 255 254 253 251 250 247 245 243 241 238 235 233 232 231 231 229 228 227 228 228 226 226 226 225 225 225 225 225 224 224 224 224 224 225 225 226 227 228 228 228 229 231 232 233 233 234 235 235 234 234 234 235 237 238 239 240 241 243 244 245 246 246 247 247 248 250 251 252 254 256 258 259 260 261 262 264
290 287 286 283 281 279 276 273 269 266 263 260 259 257 256 254 252 249 247 244 241 239 237 234 232 230 230 229 228 227 227 227 227 226 225 226 225 225 225 225 224 224 224 224 224 225 225 224 225 227 228 228 229 230 232 233 234 235 236 236 235 235 234 235 236 238 239 240 241 243 244 245 246 247 247 248 248 250 251 252 254 255 256 258 260 260 261 261
293 290 289 287 286 284 281 277 274 270 268 266 264 261 259 256 253 250 247 244 242 239 237 235 232 230 229 228 228 227 226 226 226 226 225 225 225 225 225 225 224 224 224 224 224 224 224 224 225 226 227 228 228 229 230 231 233 234 235 236 237 236 234 235 236 237 238 239 241 242 243 245 246 247 247 248 248 249 250 251 253 255 256 258 259 260 260 260
294 293 293 291 290 288 285 281 278 275 272 270 267 263 259 256 253 249 246 243 241 238 236 234 233 231 229 227 227 226 226 225 225 226 225 224 224 225 225 225 225 224 224 224 224 223 224 224 225 226 226 227 228 228 229 230 231 233 234 235 236 236 235 235 236 236 237 238 239 241 242 244 245 246 247 248 249 249 249 250 251 253 255 257 258 259 261 261
297 297 296 294 293 292 288 285 282 279 276 273 268 262 258 254 250 247 244 241 239 237 235 233 232 230 229 227 226 225 225 225 224 225 225 224 223 224 224 225 225 224 224 224 224 224 224 226 226 226 226 226 228 228 228 229 230 231 232 234 235 236 236 235 235 236 236 236 238 240 241 243 244 245 246 247 248 249 249 250 251 251 253 254 256 259 260 260
301 301 300 298 297 295 292 289 287 283 279 274 268 262 257 252 248 245 241 238 236 235 233 232 230 229 228 226 225 224 224 224 224 224 224 224 223 223 224 224 224 224 224 223 224 224 225 226 226 226 225 226 227 228 228 228 229 230 232 233 234 235 236 235 236 237 236 236 237 238 240 242 244 245 246 247 248 248 249 249 250 250 251 252 254 256 257 257
305 306 306 304 302 300 297 294 291 287 282 275 268 262 256 250 246 241 238 235 233 232 231 230 229 228 227 226 225 224 223 223 224 223 223 223 223 223 223 223 224 224 223 223 223 225 226 226 226 225 226 226 227 227 228 228 229 230 231 232 232 233 234 235 235 237 237 235 235 237 238 240 242 244 245 247 248 248 248 248 248 249 250 251 252 253 254 255
311 312 312 309 307 305 302 298 294 289 282 275 267 259 253 247 243 238 235 232 230 229 228 227 226 226 225 225 224 223 223 223 223 223 223 223 223 223 222 223 223 223 224 223 223 225 226 226 226 226 226 226 226 227 227 227 228 229 230 230 231 232 233 234 234 236 238 236 235 236 237 238 240 241 242 244 245 245 246 245 246 248 249 250 251 252 253 254
317 318 317 314 311 308 305 300 295 289 282 273 264 256 249 244 239 235 232 230 228 227 226 225 224 224 223 223 223 223 223 222 222 222 222 222 222 223 223 223 223 224 224 223 223 224 225 225 226 226 226 226 226 227 227 227 228 229 230 230 230 231 232 233 233 235 237 237 236 236 236 236 237 238 240 241 240 240 240 242 244 246 248 249 250 252 253 254
323 323 320 318 314 311 308 302 296 289 281 270 261 252 246 241 237 233 230 228 226 225 224 223 222 222 222 222 222 222 222 222 222 222 222 222 222 222 223 223 223 224 224 224 224 225 225 225 226 226 226 226 226 227 227 226 228 230 231 230 230 231 231 231 232 233 235 237 237 237 237 236 236 237 238 238 238 237 239 241 243 245 247 249 250 252 254 255
328 326 324 321 318 315 311 305 297 289 279 268 258 249 242 238 234 231 228 227 225 223 223 222 221 221 221 221 221 221 221 221 221 222 222 222 222 222 223 223 223 224 224 224 225 225 225 225 225 225 226 226 226 227 226 227 229 230 231 230 230 230 230 230 230 231 233 235 237 238 237 237 236 236 236 237 237 238 240 241 242 243 245 247 249 250 251 253
331 329 327 324 321 318 314 307 298 289 278 266 255 246 239 235 231 228 226 225 223 221 221 221 220 220 220 220 221 220 220 220 221 221 222 222 222 222 222 223 223 223 224 224 225 225 225 225 225 225 225 226 227 227 226 227 229 230 230 231 230 230 230 229 229 229 230 233 235 237 237 238 237 236 236 237 238 239 240 241 241 242 242 244 245 246 248 248
334 332 330 328 325 323 318 310 300 288 277 264 253 245 237 232 228 226 224 223 221 220 219 219 219 219 219 220 221 221 220 220 220 221 221 222 222 222 222 222 223 223 224 224 224 225 225 225 225 225 225 226 226 226 227 228 230 230 230 231 230 230 230 229 228 228 228 230 232 234 236 237 237 237 238 239 240 240 242 244 245 246 246 246 247 248 247 246
337 335 333 332 329 327 323 314 302 290 277 263 252 243 236 230 226 223 221 220 220 219 218 218 218 218 218 218 219 220 220 219 219 220 220 221 221 222 222 222 222 223 224 224 224 224 225 225 225 225 225 226 226 226 227 229 230 230 230 231 231 230 230 229 228 228 227 228 230 232 233 235 237 237 238 239 239 240 241 244 246 248 248 249 250 251 249 246
340 338 336 335 334 331 327 318 307 294 279 263 251 241 235 230 226 222 219 217 217 217 216 216 216 216 216 216 217 218 218 219 219 219 220 220 221 221 222 222 222 223 224 224 224 224 225 225 225 225 225 226 226 226 227 228 230 230 231 231 231 230 230 229 228 228 227 228 229 230 231 233 235 236 237 238 238 238 239 240 242 244 245 247 249 250 250 249
343 341 340 339 338 335 330 323 312 298 280 263 249 239 233 229 225 222 219 217 216 214 214 214 215 215 215 215 216 216 217 217 218 218 219 219 220 221 222 222 222 223 224 224 224 225 225 225 225 225 225 226 226 226 227 228 229 230 231 231 231 231 230 229 229 228 228 228 228 229 230 232 234 235 235 237 237 237 237 238 239 241 242 243 245 247 249 251
345 344 344 343 341 338 334 327 317 301 281 262 247 237 230 227 225 223 220 218 216 214 213 213 213 213 214 214 215 215 216 216 217 217 218 219 219 220 221 222 222 223 224 224 225 225 225 225 225 225 226 226 226 226 226 227 229 230 231 231 231 231 230 230 229 229 229 229 229 229 230 231 233 235 235 236 236 236 236 237 238 240 241 242 243 244 245 247
348 348 348 346 343 341 338 331 321 306 283 261 246 235 228 225 224 223 222 219 217 214 213 212 212 212 213 213 214 214 215 216 216 217 218 218 219 219 220 221 222 222 223 224 224 225 225 225 225 226 226 226 227 227 227 227 228 229 230 231 231 231 231 230 229 229 229 229 229 229 229 229 231 234 236 236 236 235 235 235 236 237 239 241 242 242 241 242
350 351 351 349 346 343 340 334 325 311 286 262 245 234 228 224 222 222 223 221 219 216 214 212 211 211 212 213 213 214 214 215 215 216 217 218 219 219 220 220 221 222 223 224 224 224 225 225 226 226 226 226 227 227 227 227 228 229 230 231 231 231 231 230 230 229 228 229 228 228 229 228 229 232 235 235 235 235 235 235 234 235 236 239 241 241 241 241
353 354 353 351 348 345 342 337 328 315 290 263 245 234 229 226 222 220 220 221 220 219 217 215 213 212 212 212 213 214 214 215 215 216 216 217 218 219 220 220 221 221 222 223 224 224 224 225 225 226 226 226 227 227 227 228 228 229 230 230 231 231 231 231 230 229 228 228 228 228 228 228 227 229 232 235 235 235 235 235 234 234 234 236 239 239 239 240
355 356 355 352 350 347 344 339 330 319 296 266 246 234 227 226 225 222 220 219 218 218 218 217 215 214 213 213 213 214 215 215 216 216 216 217 218 219 219 220 220 221 222 223 223 224 224 225 225 225 225 226 227 227 228 228 228 229 229 230 231 231 231 231 231 230 229 229 229 228 228 227 227 227 229 233 234 233 233 234 234 234 234 235 237 238 237 237
356 358 356 354 352 349 346 341 333 323 305 271 248 236 226 223 224 224 221 219 218 216 215 215 215 215 215 215 215 215 215 216 216 217 217 218 218 219 220 220 221 221 222 223 223 224 224 224 224 224 225 225 226 227 228 228 229 229 229 230 231 231 232 232 232 231 230 230 230 229 228 227 227 227 228 230 232 233 233 232 233 233 234 234 236 237 236 235
357 358 358 356 353 351 347 343 335 326 314 283 250 238 230 223 221 222 222 221 219 218 217 216 215 214 214 215 216 217 217 217 217 217 218 219 219 220 220 221 222 222 223 223 224 224 224 224 225 225 225 225 225 226 227 228 229 229 229 230 231 232 232 232 232 232 231 230 230 230 228 227 227 227 227 228 231 232 233 232 231 232 232 233 234 236 236 235
357 358 358 357 355 353 349 345 338 329 318 295 259 239 233 228 223 221 221 222 220 219 218 217 216 215 215 215 215 217 218 218 218 218 219 219 220 220 221 221 222 223 224 224 225 226 226 226 226 226 225 225 225 226 227 228 228 229 229 230 230 231 232 232 232 232 232 231 230 230 229 228 227 227 226 226 228 230 232 232 232 231 231 232 233 234 235 235
358 359 359 358 356 354 351 347 340 332 322 303 273 244 232 231 229 224 221 221 221 221 219 218 217 217 216 216 216 216 217 218 219 219 219 220 220 221 221 221 222 223 224 225 226 227 227 227 227 227 227 227 226 227 227 228 229 229 229 230 230 230 231 232 232 232 233 232 231 230 230 228 227 226 226 226 226 227 229 231 231 231 230 231 232 233 234 234
358 359 0 360 357 355 353 350 344 336 327 311 288 258 235 229 230 230 226 222 221 222 222 221 219 218 217 217 217 217 217 218 218 219 219 220 220 221 222 222 222 222 223 224 225 226 227 228 228 228 228 228 228 228 228 229 229 230 230 230 230 230 231 232 232 232 233 233 232 231 231 229 228 227 225 225 226 226 227 229 230 230 230 230 230 232 233 233
357 359 1 1 359 356 354 353 350 342 332 320 301 274 249 233 228 230 230 228 225 223 222 223 222 220 219 218 218 218 218 219 219 219 220 220 220 221 222 222 223 223 223 224 225 226 227 228 228 228 228 228 228 228 228 229 230 230 231 231 231 231 231 231 232 232 232 232 232 232 231 230 229 228 225 224 225 226 226 227 228 229 229 229 229 230 232 232
357 359 1 2 1 359 357 356 355 350 341 328 311 287 263 243 232 228 229 229 228 226 225 224 224 223 222 221 220 220 220 220 220 221 221 221 221 221 222 222 223 223 224 224 225 226 227 228 228 228 228 228 228 227 228 228 229 230 230 231 231 231 231 231 232 232 232 232 232 232 232 231 230 229 227 224 224 225 225 226 227 227 228 228 228 228 230 231
357 358 0 2 3 3 1 359 357 355 349 337 319 298 276 255 242 233 229 228 228 228 228 227 226 226 225 224 222 222 221 221 222 222 222 222 222 222 223 223 223 224 224 224 225 226 227 227 228 229 229 228 228 228 228 228 228 229 230 230 230 231 231 231 231 232 232 232 232 232 232 231 230 230 229 226 224 225 225 225 226 226 227 228 228 228 228 230
357 358 359 1 3 5 5 4 1 358 354 347 332 312 291 268 253 244 236 231 229 228 228 228 228 227 227 227 226 225 224 223 223 224 224 224 224 224 224 224 224 225 225 225 226 226 227 228 229 229 229 229 228 228 228 228 228 228 229 230 230 230 230 230 230 231 231 231 231 231 232 231 230 230 230 228 225 224 225 225 225 225 226 227 227 227 227 228
356 357 358 0 2 5 7 7 6 3 358 354 346 330 307 281 262 251 243 237 233 230 229 229 229 229 229 229 229 228 228 227 226 225 226 226 226 226 226 226 226 226 226 226 227 227 228 228 229 230 230 230 229 228 228 228 228 229 229 230 230 230 230 230 230 230 230 231 231 230 231 231 230 230 230 229 227 225 225 225 225 224 225 225 226 227 227 227
355 356 357 359 1 3 5 8 8 7 5 0 355 345 328 299 273 258 249 243 239 235 232 231 231 230 229 229 229 230 230 229 228 227 227 227 227 227 227 228 227 227 227 227 227 228 228 229 230 230 231 231 231 230 229 229 229 229 229 230 231 231 231 230 230 230 230 230 230 230 230 230 230 230 229 229 229 227 226 225 225 224 224 224 224 225 226 227
355 355 357 358 359 0 3 5 8 10 10 7 1 354 344 325 295 273 259 249 243 239 236 234 233 232 230 228 228 229 229 229 229 229 229 228 228 228 229 229 229 229 229 228 228 228 229 229 230 231 232 232 232 232 231 230 229 229 230 230 230 231 231 231 231 231 230 230 230 230 229 229 230 229 229 229 229 228 227 226 225 224 224 223 223 224 225 226